Weather History for Richmond, KY

Change the Weather History Date:

Thursday, January 30, 2014

  Actual Average (KLOZ) Record (KLOZ)
Temperature  
Mean Temperature 22 °F 36 °F  
Max Temperature 37 °F 46 °F 72 °F (2002)
Min Temperature 8 °F 27 °F -13 °F (1966)
Degree Days  
Heating Degree Days 42 29  
Month to date heating degree days 887  
Since 1 July heating degree days 2539  
Cooling Degree Days 0 0  
Month to date cooling degree days 0  
Year to date cooling degree days 0  
Moisture  
Dew Point 0 °F    
Average Humidity 39    
Maximum Humidity 67    
Minimum Humidity 20    
Precipitation  
Precipitation 0.00 in 0.12 in 1.71 in (2013)
Month to date precipitation 3.41  
Year to date precipitation 3.41  
Sea Level Pressure  
Sea Level Pressure 30.16 in    
Wind  
Wind Speed 7 mph (South)    
Max Wind Speed 18 mph    
Max Gust Speed 24 mph    
Visibility 10 miles    
Events      
T = Trace of Precipitation, MM = Missing Value Source: NWS Daily Summary

Daily Weather History Graph

Daily Weather History Graph

Search for Another Location

Airport:

Trip Planner

Search our weather history database for the weather conditions in past years. The results will help you decide how hot, cold, wet, or windy it might be!

Date:

Astronomy

Jan. 30, 2014 Rise Set
Actual Time 7:42 AM EST 5:59 PM EST
Civil Twilight 7:14 AM EST 6:26 PM EST
Nautical Twilight 6:43 AM EST 6:58 PM EST
Astronomical Twilight 6:12 AM EST 7:29 PM EST
Moon 7:08 AM EST (1/30) 6:08 PM EST (1/30)
Length of Visible Light 11h 11m
Length of Day
10h 16m
Waning Crescent, 0% of the Moon is Illuminated
Jan 30
Waning Crescent
Jan 30
New
Feb 6
First Quarter
Feb 14
Full
Feb 22
Last Quarter

Hourly Weather History & Observations

Time (EST) Temp. Windchill Dew Point Humidity Pressure Visibility Wind Dir Wind Speed Gust Speed Precip Events Conditions
12:15 AM 10.4 °F - -0.4 °F 62% 30.30 in 10.0 mi Calm Calm - N/A   Clear
12:35 AM 10.4 °F 2.2 °F -0.4 °F 62% 30.30 in 10.0 mi SE 4.6 mph - N/A   Clear
12:55 AM 8.6 °F -1.3 °F -0.4 °F 67% 30.30 in 10.0 mi SSE 5.8 mph - N/A   Clear
1:15 AM 10.4 °F 0.8 °F -0.4 °F 62% 30.29 in 10.0 mi SSE 5.8 mph - N/A   Clear
1:35 AM 10.4 °F 0.8 °F -0.4 °F 62% 30.29 in 10.0 mi SSE 5.8 mph - N/A   Clear
1:55 AM 8.6 °F -1.3 °F -0.4 °F 67% 30.29 in 10.0 mi SSE 5.8 mph - N/A   Clear
2:15 AM 8.6 °F -2.6 °F -0.4 °F 67% 30.29 in 10.0 mi SSE 6.9 mph - N/A   Clear
2:35 AM 10.4 °F 2.2 °F -0.4 °F 62% 30.29 in 10.0 mi South 4.6 mph - N/A   Clear
2:55 AM 12.2 °F 2.9 °F -2.2 °F 53% 30.29 in 10.0 mi South 5.8 mph - N/A   Clear
3:15 AM 12.2 °F 2.9 °F -2.2 °F 53% 30.29 in 10.0 mi South 5.8 mph - N/A   Clear
3:35 AM 12.2 °F 4.3 °F -2.2 °F 53% 30.29 in 10.0 mi South 4.6 mph - N/A   Clear
3:55 AM 12.2 °F 6.1 °F -2.2 °F 53% 30.29 in 10.0 mi South 3.5 mph - N/A   Clear
4:15 AM 12.2 °F 4.3 °F -2.2 °F 53% 30.29 in 10.0 mi South 4.6 mph - N/A   Clear
4:35 AM 12.2 °F 4.3 °F -2.2 °F 53% 30.29 in 10.0 mi SSE 4.6 mph - N/A   Clear
4:55 AM 12.2 °F 4.3 °F -2.2 °F 53% 30.28 in 10.0 mi SSE 4.6 mph - N/A   Clear
5:15 AM 8.6 °F -2.6 °F -2.2 °F 62% 30.27 in 10.0 mi SSE 6.9 mph - N/A   Clear
5:35 AM 8.6 °F -1.3 °F -2.2 °F 62% 30.26 in 10.0 mi SSE 5.8 mph - N/A   Clear
5:55 AM 10.4 °F -0.4 °F -2.2 °F 57% 30.26 in 10.0 mi SSE 6.9 mph - N/A   Clear
6:15 AM 12.2 °F 2.9 °F -2.2 °F 53% 30.26 in 10.0 mi South 5.8 mph - N/A   Clear
6:35 AM 12.2 °F 4.3 °F -2.2 °F 53% 30.27 in 10.0 mi SSW 4.6 mph - N/A   Clear
6:55 AM 12.2 °F 2.9 °F -2.2 °F 53% 30.26 in 10.0 mi South 5.8 mph - N/A   Clear
7:15 AM 12.2 °F 1.7 °F -2.2 °F 53% 30.25 in 10.0 mi South 6.9 mph - N/A   Clear
7:35 AM 12.2 °F 4.3 °F -2.2 °F 53% 30.26 in 10.0 mi South 4.6 mph - N/A   Clear
7:55 AM 12.2 °F - -2.2 °F 53% 30.26 in 10.0 mi Calm Calm - N/A   Clear
8:15 AM 12.2 °F - -2.2 °F 53% 30.27 in 10.0 mi Calm Calm - N/A   Clear
8:35 AM 14.0 °F 8.2 °F -0.4 °F 53% 30.26 in 10.0 mi South 3.5 mph - N/A   Clear
8:55 AM 15.8 °F 8.6 °F 1.4 °F 53% 30.25 in 10.0 mi South 4.6 mph - N/A   Clear
9:15 AM 17.6 °F 10.7 °F 1.4 °F 49% 30.25 in 10.0 mi South 4.6 mph - N/A   Clear
9:35 AM 19.4 °F 9.5 °F -0.4 °F 42% 30.25 in 10.0 mi South 8.1 mph - N/A   Clear
9:55 AM 21.2 °F 11.7 °F -0.4 °F 39% 30.26 in 10.0 mi South 8.1 mph - N/A   Clear
10:15 AM 21.2 °F 10.1 °F 1.4 °F 42% 30.25 in 10.0 mi South 10.4 mph 16.1 mph N/A   Clear
10:35 AM 23.0 °F 13.9 °F 1.4 °F 39% 30.25 in 10.0 mi SSW 8.1 mph - N/A   Clear
10:55 AM 24.8 °F 15.3 °F 1.4 °F 36% 30.25 in 10.0 mi SSW 9.2 mph - N/A   Clear
11:15 AM 24.8 °F 14.0 °F -0.4 °F 34% 30.26 in 10.0 mi SSW 11.5 mph - N/A   Clear
11:35 AM 28.4 °F 19.1 °F 1.4 °F 31% 30.25 in 10.0 mi SW 10.4 mph 17.3 mph N/A   Clear
11:55 AM 28.4 °F 17.5 °F 1.4 °F 31% 30.25 in 10.0 mi WSW 13.8 mph 19.6 mph N/A   Clear
12:15 PM 28.4 °F 18.0 °F 1.4 °F 31% 30.23 in 10.0 mi SSW 12.7 mph - N/A   Clear
12:35 PM 30.2 °F 20.8 °F 1.4 °F 29% 30.20 in 10.0 mi South 11.5 mph - N/A   Clear
12:55 PM 30.2 °F 20.2 °F 1.4 °F 29% 30.16 in 10.0 mi SSW 12.7 mph 19.6 mph N/A   Clear
1:15 PM 32.0 °F 22.1 °F 1.4 °F 27% 30.15 in 10.0 mi SSW 13.8 mph 19.6 mph N/A   Clear
1:35 PM 32.0 °F 21.2 °F -0.4 °F 25% 30.12 in 10.0 mi SSW 16.1 mph 20.7 mph N/A   Clear
1:55 PM 32.0 °F 22.1 °F -0.4 °F 25% 30.10 in 10.0 mi South 13.8 mph 20.7 mph N/A   Clear
2:15 PM 32.0 °F 23.0 °F -2.2 °F 23% 30.08 in 10.0 mi South 11.5 mph 18.4 mph N/A   Clear
2:35 PM 35.6 °F 29.2 °F 1.4 °F 24% 30.08 in 10.0 mi South 8.1 mph - N/A   Clear
2:55 PM 35.6 °F 28.0 °F -0.4 °F 22% 30.07 in 10.0 mi SSW 10.4 mph - N/A   Clear
3:15 PM 35.6 °F 27.5 °F 1.4 °F 24% 30.07 in 10.0 mi SSW 11.5 mph 18.4 mph N/A   Clear
3:35 PM 37.4 °F 28.5 °F 1.4 °F 22% 30.07 in 10.0 mi SSW 15.0 mph 18.4 mph N/A   Clear
3:55 PM 37.4 °F 29.8 °F 1.4 °F 22% 30.05 in 10.0 mi South 11.5 mph - N/A   Clear
4:15 PM 37.4 °F 32.1 °F -0.4 °F 20% 30.05 in 10.0 mi South 6.9 mph - N/A   Clear
4:35 PM 37.4 °F 31.4 °F 1.4 °F 22% 30.03 in 10.0 mi South 8.1 mph - N/A   Clear
4:55 PM 37.4 °F 31.4 °F 3.2 °F 24% 30.03 in 10.0 mi SW 8.1 mph - N/A   Clear
5:15 PM 37.4 °F 31.4 °F 3.2 °F 24% 30.03 in 10.0 mi SSW 8.1 mph - N/A   Clear
5:35 PM 37.4 °F 31.4 °F 1.4 °F 22% 30.03 in 10.0 mi SSW 8.1 mph - N/A   Clear
5:55 PM 37.4 °F 31.4 °F 1.4 °F 22% 30.01 in 10.0 mi South 8.1 mph - N/A   Clear
6:15 PM 35.6 °F 29.9 °F 1.4 °F 24% 30.00 in 10.0 mi South 6.9 mph - N/A   Clear
6:35 PM 35.6 °F 29.9 °F 1.4 °F 24% 29.99 in 10.0 mi South 6.9 mph - N/A   Clear
6:55 PM 35.6 °F 29.2 °F 3.2 °F 26% 29.99 in 10.0 mi South 8.1 mph - N/A   Clear
7:15 PM 35.6 °F 28.0 °F 3.2 °F 26% 29.99 in 10.0 mi South 10.4 mph - N/A   Clear
7:35 PM 35.6 °F 27.5 °F 3.2 °F 26% 30.00 in 10.0 mi South 11.5 mph - N/A   Clear
7:55 PM 33.8 °F 25.8 °F 3.2 °F 28% 30.01 in 10.0 mi South 10.4 mph 16.1 mph N/A   Clear
8:15 PM 33.8 °F 25.8 °F 3.2 °F 28% 30.01 in 10.0 mi South 10.4 mph - N/A   Clear
8:35 PM 33.8 °F 25.8 °F 1.4 °F 25% 30.01 in 10.0 mi South 10.4 mph 17.3 mph N/A   Clear
8:55 PM 33.8 °F 24.3 °F 1.4 °F 25% 30.01 in 10.0 mi South 13.8 mph 18.4 mph N/A   Clear
9:15 PM 33.8 °F 22.8 °F 1.4 °F 25% 30.01 in 10.0 mi South 18.4 mph 23.0 mph N/A   Clear
9:35 PM 35.6 °F 25.2 °F 1.4 °F 24% 30.01 in 10.0 mi South 18.4 mph 24.2 mph N/A   Clear
9:55 PM 35.6 °F 26.6 °F 1.4 °F 24% 30.01 in 10.0 mi SSW 13.8 mph 19.6 mph N/A   Clear
10:15 PM 35.6 °F 26.6 °F 1.4 °F 24% 30.02 in 10.0 mi SSW 13.8 mph 21.9 mph N/A   Clear
10:35 PM 33.8 °F 24.8 °F 1.4 °F 25% 30.02 in 10.0 mi SSW 12.7 mph 19.6 mph N/A   Clear
10:55 PM 33.8 °F 25.8 °F 3.2 °F 28% 30.04 in 10.0 mi SW 10.4 mph 18.4 mph N/A   Clear
11:15 PM 33.8 °F 27.0 °F 3.2 °F 28% 30.05 in 10.0 mi SW 8.1 mph - N/A   Clear
11:35 PM 32.0 °F 25.6 °F 3.2 °F 30% 30.05 in 10.0 mi SW 6.9 mph - N/A   Clear
11:55 PM 32.0 °F 24.8 °F 3.2 °F 30% 30.05 in 10.0 mi SW 8.1 mph - N/A   Clear